Wind_Speed
15 15 15 15 15 15 16 16 16 16 16 16 16 16 15 15 15 15 15 14 13 13 12 12 13 12 12 11 11 11 11 11 10 9 8 7 6 5 4 4 3 3 3
17 17 17 17 16 16 16 17 17 17 17 17 17 17 17 17 16 16 16 16 15 14 14 14 14 13 13 13 13 12 12 12 11 10 10 9 8 7 6 5 4 4 3
19 19 19 18 18 18 18 18 18 18 18 18 18 19 18 18 18 18 17 17 17 16 15 15 15 15 14 14 14 14 14 13 13 12 11 10 9 8 7 7 6 6 5
20 20 20 20 20 20 20 20 20 19 19 19 19 20 19 19 19 20 19 19 18 17 17 17 16 16 16 16 16 15 15 15 15 14 13 12 11 10 9 8 7 7 6
21 21 22 22 21 22 22 22 21 21 21 21 21 21 21 21 20 20 20 19 20 19 19 18 19 18 18 17 17 17 17 16 16 15 15 14 13 12 10 9 9 8 8
22 22 22 22 22 23 23 23 23 23 23 23 22 22 22 22 22 21 22 21 21 20 21 20 20 20 19 18 18 18 18 18 17 17 16 15 14 13 12 11 11 10 9
23 23 23 23 23 23 24 24 24 24 25 24 24 24 24 24 23 23 23 23 23 22 22 21 21 21 21 20 20 20 20 19 19 19 18 17 16 15 14 13 12 12 11
24 24 25 25 24 24 24 25 25 26 26 26 26 25 25 25 25 24 24 24 24 24 23 22 22 23 22 22 22 21 21 21 21 21 20 20 18 17 16 16 15 14 13
25 25 25 25 25 25 25 25 26 26 26 27 27 27 27 27 26 26 25 25 25 25 25 24 24 24 24 24 24 23 23 22 22 22 22 22 21 19 19 18 17 17 16
27 27 26 26 26 26 26 26 26 26 27 27 28 28 28 28 28 28 27 27 26 25 26 26 25 25 26 26 25 25 25 24 23 23 23 24 23 22 21 20 19 19 18
27 28 27 27 27 27 27 27 26 27 27 27 28 29 29 29 29 29 28 28 28 28 28 27 27 27 27 27 27 27 27 27 26 25 25 25 25 24 24 23 22 21 20
28 28 28 28 28 29 29 28 28 27 27 27 28 29 30 30 30 30 30 30 30 29 29 29 29 29 29 29 29 29 29 28 28 27 27 26 26 25 25 25 24 23 23
28 28 29 28 29 30 31 30 30 29 29 29 29 30 31 31 32 32 32 31 31 31 31 31 30 29 30 30 31 31 31 30 30 30 29 28 27 27 26 26 26 26 25
28 28 29 28 29 30 31 31 31 31 31 31 31 31 32 32 33 33 33 33 33 32 32 32 32 31 31 32 33 33 33 33 32 32 31 31 30 29 28 28 28 28 27
27 28 28 28 28 30 31 31 32 32 32 33 33 33 33 34 34 34 34 34 34 33 33 33 32 33 33 33 33 34 35 34 35 34 34 33 33 32 31 31 30 30 29
27 28 28 29 29 30 30 31 32 33 33 33 34 34 34 34 35 35 35 35 35 35 35 35 35 34 34 34 34 35 35 35 36 36 36 35 35 34 34 34 33 32 32
27 28 29 29 29 30 30 31 32 32 33 33 34 35 35 35 35 36 36 36 36 36 36 37 36 36 36 35 35 35 36 36 37 37 37 36 36 36 36 36 36 35 34
28 28 28 28 29 30 31 31 32 33 33 34 34 35 35 35 35 35 36 36 36 37 37 37 38 38 38 37 37 36 36 36 36 37 37 37 37 37 38 38 38 38 36
28 28 28 28 29 29 30 31 32 33 34 34 34 34 35 35 35 35 37 37 37 37 37 38 38 37 38 39 38 38 38 38 38 38 39 38 39 39 39 40 40 40 38
28 28 28 28 28 29 30 30 31 33 34 35 35 35 35 36 36 36 37 37 37 37 38 38 39 39 39 40 40 40 40 40 40 40 40 40 41 41 41 41 42 42 41
29 29 28 28 28 28 29 30 31 32 33 34 36 36 36 36 37 38 38 37 38 38 38 39 39 40 40 40 42 42 42 41 41 41 41 42 42 43 42 43 44 43 43
29 29 29 29 29 29 29 30 31 32 33 34 35 35 36 36 36 37 37 38 38 38 38 39 39 40 40 40 42 43 44 44 43 43 43 44 44 45 45 44 45 45 45
30 30 30 30 30 30 29 30 31 31 33 34 34 35 35 35 35 35 36 36 37 37 38 38 39 40 40 41 42 43 45 45 44 45 45 45 46 46 46 46 46 46 47
31 30 30 31 31 31 31 30 30 31 31 32 33 34 34 34 34 34 35 35 36 37 37 37 38 40 41 42 43 44 45 46 47 47 47 47 47 47 48 48 47 47 47
31 31 31 31 32 32 31 32 31 31 31 32 33 33 33 34 34 35 35 35 36 36 37 37 38 39 40 42 43 44 45 46 47 48 48 48 48 48 48 48 48 48 48
30 31 31 31 31 32 32 32 32 32 33 33 33 33 33 34 34 35 36 36 36 37 37 38 38 39 40 42 43 44 45 46 47 48 49 49 49 49 49 48 49 48 48
Wind_Direction
253 253 251 249 246 244 242 242 243 242 240 238 236 235 236 238 239 238 236 236 235 234 230 228 226 226 224 222 220 218 216 215 213 214 213 213 213 214 216 214 211 198 187
255 254 252 250 247 245 243 242 242 243 242 240 238 238 238 239 240 240 239 239 238 236 234 233 232 230 227 225 224 222 221 220 220 220 220 220 221 222 226 226 223 215 209
254 253 251 249 248 247 245 243 242 242 242 241 240 240 240 240 240 241 242 241 241 239 238 237 236 234 231 229 228 227 226 224 224 225 226 226 227 228 231 232 231 225 225
252 251 251 250 249 248 247 246 244 243 243 242 241 241 241 242 241 240 241 242 241 242 241 240 239 238 236 235 232 231 230 229 228 229 230 231 232 233 235 236 238 232 233
254 253 252 251 249 248 246 246 245 243 243 242 242 242 242 242 242 241 241 242 241 243 244 244 243 242 240 240 237 236 235 232 233 233 233 233 234 236 237 239 241 236 239
253 253 252 251 250 248 247 245 245 244 243 243 243 242 242 243 243 243 243 242 242 244 246 246 247 244 242 240 238 239 238 237 236 235 235 235 235 236 238 240 241 239 242
252 252 251 251 250 248 247 246 245 244 244 243 243 243 243 243 244 244 245 244 244 245 247 247 247 244 243 242 241 240 240 240 239 238 237 236 237 239 240 241 242 242 243
252 251 252 251 250 249 248 247 247 245 245 244 244 243 243 243 244 244 245 246 246 246 248 248 248 246 245 244 244 244 243 242 241 240 238 238 238 240 241 242 243 244 245
251 250 251 251 251 249 248 247 247 246 246 245 244 244 244 244 245 245 246 247 247 247 247 249 249 249 247 246 245 245 245 244 244 242 240 239 240 241 243 244 246 247 247
251 250 250 250 250 249 248 248 247 247 246 246 245 245 244 245 245 245 246 247 248 247 248 249 250 250 249 247 245 245 245 246 245 244 242 241 241 241 244 246 247 248 249
251 251 250 250 250 250 249 248 247 248 247 246 247 246 246 246 246 246 247 248 248 248 248 249 250 251 250 248 246 246 246 247 245 244 243 242 242 243 244 245 247 248 249
250 250 250 250 249 250 249 248 247 248 248 247 247 247 247 247 247 248 249 250 249 250 250 249 250 251 250 249 247 246 246 246 247 245 243 242 243 244 245 246 247 248 249
251 250 250 249 249 249 249 248 248 249 249 249 249 248 248 247 247 248 249 250 250 250 251 251 251 250 251 250 249 247 246 246 246 245 244 243 243 245 246 247 248 249 250
253 251 251 251 251 249 248 248 248 249 249 249 249 249 249 248 248 249 249 249 250 250 251 252 251 250 252 252 250 248 247 245 244 243 244 244 244 245 247 249 250 250 250
254 253 252 254 252 250 248 248 248 249 249 249 249 250 249 249 248 249 249 250 250 250 251 252 253 253 253 252 250 248 247 246 244 243 243 244 245 246 247 249 250 250 251
254 254 256 256 252 251 249 249 249 249 250 250 250 250 250 250 249 249 249 249 250 250 251 252 253 253 253 252 251 250 248 247 245 243 243 244 244 246 247 249 250 251 252
254 255 255 255 252 252 251 250 249 250 250 251 251 251 250 250 250 250 250 250 251 251 252 252 254 254 253 253 251 250 249 248 246 245 246 246 245 246 248 248 249 251 252
256 256 254 253 252 252 251 251 251 251 251 252 252 251 250 249 250 250 250 250 251 252 252 253 253 254 254 253 251 250 249 248 248 248 248 248 248 249 251 250 250 251 252
258 258 257 254 252 252 251 252 252 252 252 252 252 251 250 250 250 250 251 251 252 252 253 254 254 255 255 254 251 249 248 247 248 248 248 248 249 251 252 251 252 253 254
259 259 257 256 254 254 254 254 254 253 252 252 252 252 251 250 250 251 252 252 253 254 254 254 254 255 255 254 250 249 249 249 248 248 249 250 251 251 252 253 253 253 254
259 259 258 257 257 257 255 255 254 253 253 253 252 252 252 251 252 252 251 252 253 253 254 254 255 254 255 253 250 250 251 250 249 250 250 251 251 252 253 254 254 254 254
258 259 259 259 259 257 257 254 253 253 253 253 253 253 252 252 252 252 253 253 254 254 254 254 255 254 254 252 251 251 251 251 251 251 252 253 253 253 253 254 254 254 255
259 259 258 259 259 258 257 255 254 255 254 253 253 253 252 253 253 253 253 254 254 255 256 255 255 256 256 254 254 254 253 251 250 251 252 254 255 255 254 254 255 255 255
259 258 257 258 259 260 258 257 255 255 255 254 253 254 253 253 254 255 255 255 256 256 256 257 256 257 257 256 256 256 255 253 252 253 254 254 255 255 255 254 254 254 254
258 258 258 258 258 259 258 258 256 255 255 255 256 255 254 254 255 256 256 257 258 258 257 258 259 260 259 258 258 258 256 255 255 255 255 255 256 255 254 253 254 254 254
257 257 256 256 257 257 257 257 256 256 256 256 257 256 255 256 256 257 258 258 259 258 258 259 260 261 261 260 259 259 258 257 256 257 257 256 255 255 254 253 253 254 255
Height
5838 5838 5839 5839 5840 5841 5842 5843 5844 5845 5847 5848 5849 5850 5851 5853 5854 5855 5856 5857 5858 5858 5859 5860 5860 5861 5862 5863 5864 5865 5865 5866 5866 5867 5867 5868 5868 5869 5869 5869 5869 5869 5869
5834 5835 5836 5837 5837 5838 5839 5840 5841 5843 5844 5845 5847 5848 5849 5850 5852 5853 5854 5855 5856 5857 5857 5858 5859 5860 5861 5862 5863 5863 5864 5865 5865 5866 5866 5867 5867 5868 5868 5868 5868 5868 5869
5831 5832 5833 5833 5834 5835 5836 5837 5838 5840 5841 5843 5844 5845 5846 5848 5849 5850 5851 5852 5853 5854 5855 5856 5857 5858 5859 5860 5861 5862 5863 5863 5864 5865 5865 5866 5866 5867 5867 5867 5867 5868 5868
5826 5827 5828 5830 5831 5832 5833 5834 5835 5836 5838 5839 5841 5842 5843 5845 5846 5847 5848 5849 5850 5852 5852 5853 5854 5856 5857 5858 5859 5860 5860 5861 5862 5863 5864 5865 5865 5866 5866 5866 5866 5867 5867
5822 5823 5824 5825 5826 5828 5829 5830 5831 5833 5834 5836 5837 5839 5840 5841 5843 5844 5845 5846 5847 5849 5849 5850 5851 5853 5854 5855 5856 5857 5858 5859 5860 5861 5862 5863 5864 5864 5865 5865 5865 5866 5866
5817 5818 5819 5820 5822 5823 5824 5826 5827 5829 5830 5832 5833 5835 5836 5838 5839 5840 5841 5843 5844 5845 5846 5847 5848 5849 5851 5852 5853 5854 5855 5856 5858 5859 5860 5861 5861 5862 5863 5863 5864 5864 5864
5812 5813 5814 5815 5817 5818 5820 5821 5823 5824 5826 5827 5829 5830 5832 5834 5835 5837 5838 5839 5840 5841 5843 5844 5844 5845 5847 5849 5850 5851 5852 5853 5855 5856 5857 5858 5859 5860 5861 5861 5862 5862 5862
5807 5808 5809 5810 5811 5813 5815 5816 5818 5819 5821 5822 5824 5826 5827 5829 5831 5832 5834 5835 5836 5837 5838 5840 5841 5842 5843 5845 5846 5848 5849 5850 5851 5852 5854 5855 5856 5857 5858 5859 5860 5860 5860
5801 5802 5803 5805 5806 5808 5809 5811 5812 5814 5816 5817 5819 5821 5822 5824 5826 5828 5829 5830 5832 5833 5834 5835 5836 5837 5839 5840 5842 5843 5844 5846 5847 5848 5850 5851 5853 5854 5855 5856 5857 5857 5858
5795 5796 5797 5799 5800 5802 5803 5805 5807 5808 5810 5812 5813 5815 5817 5819 5821 5823 5824 5826 5827 5828 5829 5830 5832 5833 5834 5836 5837 5839 5840 5841 5843 5844 5846 5847 5849 5850 5852 5853 5854 5854 5855
5788 5790 5791 5793 5794 5796 5797 5799 5801 5803 5804 5806 5808 5809 5811 5813 5815 5817 5819 5820 5822 5823 5824 5825 5827 5828 5829 5830 5832 5834 5835 5836 5838 5839 5841 5843 5845 5846 5848 5849 5850 5851 5851
5781 5783 5785 5786 5788 5789 5791 5793 5795 5797 5798 5800 5802 5804 5805 5807 5809 5811 5813 5814 5816 5817 5818 5820 5821 5822 5824 5825 5826 5828 5830 5831 5833 5835 5836 5838 5840 5842 5843 5844 5846 5846 5847
5775 5776 5778 5779 5781 5782 5784 5786 5788 5790 5792 5794 5796 5797 5799 5801 5803 5805 5807 5808 5810 5811 5812 5814 5815 5817 5818 5819 5820 5822 5824 5826 5827 5829 5831 5833 5835 5837 5838 5840 5841 5842 5843
5768 5770 5771 5773 5774 5775 5777 5779 5781 5783 5785 5787 5789 5790 5792 5794 5796 5798 5800 5801 5803 5805 5806 5807 5809 5810 5811 5812 5814 5816 5818 5820 5821 5823 5826 5828 5830 5831 5833 5834 5836 5837 5838
5762 5763 5765 5766 5767 5768 5770 5772 5774 5776 5778 5779 5781 5783 5785 5786 5788 5790 5792 5794 5796 5798 5799 5801 5802 5803 5804 5806 5807 5809 5811 5813 5815 5817 5819 5822 5824 5825 5827 5829 5830 5831 5832
5755 5756 5757 5758 5759 5761 5763 5764 5766 5768 5770 5771 5773 5775 5776 5778 5780 5782 5784 5786 5788 5790 5792 5794 5795 5796 5797 5799 5800 5802 5804 5806 5808 5810 5812 5815 5817 5819 5821 5822 5823 5825 5826
5748 5749 5750 5751 5752 5753 5755 5756 5758 5760 5761 5763 5765 5766 5768 5770 5772 5774 5776 5778 5780 5782 5784 5785 5787 5788 5790 5792 5793 5795 5797 5799 5801 5803 5805 5807 5810 5812 5814 5815 5816 5818 5819
5741 5742 5743 5743 5744 5746 5747 5749 5750 5751 5753 5754 5756 5758 5759 5762 5764 5766 5768 5770 5772 5774 5775 5777 5779 5781 5782 5784 5786 5787 5789 5792 5794 5796 5798 5800 5802 5804 5806 5807 5809 5811 5812
5733 5734 5734 5736 5737 5738 5739 5741 5742 5743 5744 5745 5747 5749 5751 5753 5755 5757 5759 5761 5763 5765 5767 5768 5770 5772 5774 5776 5778 5779 5782 5784 5786 5788 5790 5792 5794 5796 5798 5799 5801 5803 5804
5725 5726 5727 5728 5729 5731 5732 5732 5733 5735 5736 5737 5738 5740 5742 5744 5746 5748 5751 5753 5755 5757 5758 5760 5761 5763 5765 5767 5769 5771 5773 5775 5777 5780 5782 5784 5786 5788 5789 5791 5793 5794 5796
5718 5719 5720 5721 5722 5723 5723 5724 5725 5726 5727 5728 5730 5731 5733 5735 5737 5740 5742 5744 5746 5748 5750 5751 5753 5754 5756 5757 5760 5762 5764 5766 5768 5771 5773 5775 5777 5778 5780 5782 5784 5785 5787
5711 5711 5712 5713 5714 5715 5716 5716 5717 5718 5719 5720 5721 5723 5725 5727 5729 5731 5733 5735 5737 5739 5741 5742 5743 5745 5746 5748 5751 5752 5754 5757 5759 5762 5764 5765 5767 5769 5770 5772 5774 5775 5777
5703 5703 5704 5705 5706 5707 5708 5708 5709 5710 5711 5712 5713 5714 5716 5718 5720 5722 5724 5726 5728 5730 5732 5733 5735 5736 5737 5739 5741 5743 5744 5747 5749 5752 5754 5756 5757 5758 5760 5762 5763 5765 5766
5694 5695 5696 5697 5698 5699 5700 5700 5701 5702 5703 5704 5705 5706 5708 5710 5712 5713 5715 5717 5719 5721 5723 5724 5725 5727 5728 5729 5731 5733 5734 5736 5739 5741 5744 5745 5746 5747 5749 5751 5752 5754 5755
5685 5686 5687 5688 5689 5690 5691 5692 5693 5694 5695 5696 5697 5698 5700 5701 5703 5705 5707 5708 5710 5712 5713 5715 5716 5717 5718 5719 5721 5722 5723 5725 5726 5729 5731 5733 5735 5736 5737 5739 5741 5743 5744
5676 5677 5679 5679 5680 5681 5682 5683 5684 5685 5687 5688 5688 5690 5691 5693 5694 5696 5698 5699 5701 5702 5704 5705 5706 5707 5708 5709 5710 5711 5712 5713 5715 5716 5718 5720 5722 5724 5725 5727 5729 5731 5733